1488013200.0,61306,7.5,72670.3,-12.67,-16.41,-16.31,0,*67
1488013201.24,61307,7.5,72662.0,-12.67,-16.03,-15.89,0,*60
1488013202.49,61308,7.5,72662.3,-12.67,-15.63,-15.57,0,*69
1488013203.74,61309,7.5,72660.0,-12.67,-15.95,-15.81,0,*6A
1488013204.99,61310,7.5,72662.8,-12.67,-15.71,-15.57,0,*63
1488013206.25,61311,7.5,72664.0,-12.65,-15.99,-15.85,0,*69
1488013207.55,61312,7.44,72662.5,-12.65,-16.13,-16.13,0,*67
1488013208.8,61313,7.44,72662.0,-12.65,-16.83,-16.75,0,*6F
1488013210.09,61314,7.5,72656.8,-12.65,-17.03,-17.03,0,*61
1488013211.39,61315,7.44,72650.5,-12.65,-17.03,-17.11,0,*63
1488013212.62,61316,7.44,72652.5,-12.67,-16.83,-16.75,0,*68
1488013213.83,61317,7.44,72650.3,-12.67,-16.59,-16.45,0,*6D
1488013215.1,61318,7.44,72646.5,-12.67,-15.57,-15.43,0,*6A
1488013216.33,61319,7.44,72650.5,-12.67,-15.29,-15.25,0,*62
1488013217.61,61320,7.5,72650.5,-12.67,-15.43,-15.43,0,*64
1488013218.9,61321,7.5,72658.3,-12.65,-15.81,-15.81,0,*67
1488013220.13,61322,7.5,72660.5,-12.59,-15.53,-15.53,0,*6B
1488013221.41,61323,7.44,72656.5,-12.63,-15.89,-15.89,0,*63
1488013222.63,61324,7.5,72662.3,-12.59,-15.67,-15.67,0,*6D
1488013223.85,61325,7.44,72668.8,-12.59,-15.95,-15.95,0,*6C
1488013225.1,61326,7.5,72670.0,-12.63,-15.89,-15.95,0,*6B
1488013226.35,61327,7.5,72670.8,-12.59,-16.51,-16.41,0,*6F
1488013227.63,61328,7.44,72670.3,-12.63,-16.09,-15.81,0,*6B
1488013228.88,61329,7.44,72672.8,-12.63,-15.81,-15.67,0,*61
1488013230.1,61330,7.44,72668.5,-12.59,-15.63,-15.53,0,*6B
1488013231.33,61331,7.44,72666.5,-12.59,-15.63,-15.63,0,*69
1488013232.55,61332,7.5,72664.5,-12.59,-15.49,-15.29,0,*6C
1488013233.82,61333,7.5,72666.0,-12.57,-15.15,-15.01,0,*60
1488013235.05,61334,7.44,72654.0,-12.55,-14.89,-14.89,0,*60
1488013236.31,61335,7.5,72658.5,-12.55,-15.35,-15.35,0,*61
1488013237.54,61336,7.44,72654.0,-12.55,-15.29,-15.25,0,*6E
1488013238.8,61337,7.5,72654.8,-12.55,-15.01,-15.01,0,*63
1488013240.07,61338,7.5,72652.0,-12.53,-14.97,-14.89,0,*65
1488013241.29,61339,7.5,72654.5,-12.51,-14.69,-14.65,0,*65
1488013242.55,61340,7.44,72650.5,-12.49,-15.11,-15.21,0,*6D
1488013243.85,61341,7.44,72654.8,-12.49,-15.43,-15.39,0,*62
1488013245.15,61342,7.44,72654.3,-12.49,-15.39,-15.39,0,*6C
1488013246.44,61343,7.5,72650.5,-12.49,-15.85,-15.85,0,*6D
1488013247.73,61344,7.5,72644.0,-12.49,-15.81,-15.57,0,*61
1488013248.98,61345,7.44,72646.3,-12.45,-15.75,-15.67,0,*64
1488013250.24,61346,7.44,72652.0,-12.45,-16.37,-16.51,0,*64
1488013251.51,61347,7.44,72654.8,-12.45,-16.17,-16.37,0,*67
1488013252.76,61348,7.44,72646.3,-12.49,-16.83,-16.83,0,*66
1488013254.0,61349,7.5,72636.8,-12.49,-16.41,-16.41,0,*67
1488013255.24,61350,7.5,72628.8,-12.49,-16.45,-16.45,0,*6F
1488013256.49,61351,7.44,72624.3,-12.51,-15.95,-15.85,0,*66
1488013257.78,61352,7.5,72618.3,-12.49,-15.57,-15.43,0,*68
1488013259.08,61353,7.44,72610.8,-12.49,-15.43,-15.39,0,*61
1488013260.33,61354,7.5,72612.0,-12.45,-15.75,-15.63,0,*60
1488013261.62,61355,7.5,72614.3,-12.45,-15.57,-15.43,0,*63
1488013262.9,61356,7.5,72620.8,-12.45,-15.35,-15.29,0,*68
1488013264.16,61357,7.44,72622.8,-12.45,-14.97,-14.89,0,*6B
1488013265.38,61358,7.5,72628.3,-12.43,-15.15,-15.11,0,*69
1488013266.59,61359,7.44,72630.3,-12.43,-14.89,-14.69,0,*62
1488013267.85,61360,7.5,72646.0,-12.41,-14.69,-14.47,0,*68
1488013269.1,61361,7.5,72650.3,-12.41,-15.01,-14.89,0,*64
1488013270.36,61362,7.44,72656.3,-12.35,-15.21,-15.07,0,*61
1488013271.65,61363,7.5,72666.5,-12.35,-15.21,-15.01,0,*66
1488013272.92,61364,7.44,72668.3,-12.35,-15.39,-15.25,0,*6E
1488013274.2,61365,7.5,72670.5,-12.35,-15.01,-14.79,0,*6C
1488013275.44,61366,7.5,72670.3,-12.33,-15.07,-14.93,0,*6B
1488013276.69,61367,7.44,72678.5,-12.33,-15.39,-15.25,0,*6B
1488013277.96,61368,7.5,72688.5,-12.31,-15.49,-15.39,0,*6C
1488013279.23,61369,7.5,72694.5,-12.31,-16.69,-16.93,0,*6F
1488013280.52,61370,7.44,72692.0,-12.31,-16.51,-16.51,0,*62
1488013281.81,61371,7.44,72688.5,-12.35,-17.17,-17.25,0,*66
1488013283.06,61372,7.44,72684.3,-12.39,-17.49,-17.59,0,*69
1488013284.33,61373,7.5,72676.5,-12.39,-17.17,-17.17,0,*69
1488013285.55,61374,7.5,72674.8,-12.39,-16.41,-16.41,0,*6E
1488013286.84,61375,7.44,72650.8,-12.41,-17.07,-17.07,0,*60
1488013288.08,61376,7.5,72656.8,-12.43,-17.69,-17.79,0,*60
1488013289.35,61377,7.5,72646.8,-12.43,-17.93,-17.97,0,*64
1488013290.62,61378,7.5,72650.5,-12.45,-17.87,-17.97,0,*68
1488013291.92,61379,7.5,72646.0,-12.45,-17.45,-17.45,0,*68
1488013293.21,61380,7.44,72644.0,-12.49,-17.93,-17.93,0,*62
1488013294.43,61381,7.5,72652.3,-12.51,-18.69,-18.79,0,*6B
1488013295.69,61382,7.5,72662.5,-12.53,-18.89,-19.03,0,*68
1488013296.93,61383,7.5,72664.0,-12.57,-19.03,-19.17,0,*6B
1488013298.17,61384,7.5,72656.0,-12.59,-18.79,-18.89,0,*68
1488013299.47,61385,7.5,72664.0,-12.65,-18.35,-18.35,0,*69
1488013300.71,61386,7.5,72670.8,-12.63,-18.01,-18.17,0,*6B
1488013301.96,61387,7.5,72680.0,-12.67,-18.07,-18.01,0,*6F
1488013303.21,61388,7.44,72674.3,-12.67,-17.97,-18.07,0,*60
1488013304.43,61389,7.5,72674.3,-12.67,-18.11,-18.21,0,*64
1488013305.67,61390,7.5,72688.5,-12.69,-17.69,-17.79,0,*60
1488013306.9,61391,7.5,72690.0,-12.73,-17.59,-17.73,0,*63
1488013308.16,61392,7.5,72676.5,-12.73,-17.55,-17.45,0,*69
1488013309.43,61393,7.5,72674.5,-12.73,-16.65,-16.65,0,*69
1488013310.69,61394,7.5,72676.5,-12.73,-16.23,-16.17,0,*69
1488013311.91,61395,7.5,72680.3,-12.73,-15.95,-15.95,0,*6F
1488013313.12,61396,7.5,72686.5,-12.73,-15.63,-15.63,0,*6C
1488013314.33,61397,7.5,72690.8,-12.69,-15.71,-15.63,0,*65
1488013315.6,61398,7.5,72686.0,-12.69,-16.13,-16.13,0,*69
1488013316.88,61399,7.5,72692.0,-12.69,-16.13,-16.13,0,*68
1488013318.08,61400,7.5,72694.3,-12.69,-15.99,-15.99,0,*6F
1488013319.36,61401,7.5,72696.8,-12.67,-16.17,-16.17,0,*60
1488013320.63,61402,7.5,72690.8,-12.67,-16.17,-16.13,0,*67
1488013321.88,61403,7.5,72698.3,-12.67,-16.45,-16.51,0,*67
1488013323.09,61404,7.5,72702.5,-12.67,-16.93,-16.93,0,*65
1488013324.33,61405,7.5,72692.3,-12.67,-17.31,-17.41,0,*63
1488013325.57,61406,7.5,72692.3,-12.69,-17.69,-17.63,0,*63
1488013326.8,61407,7.5,72696.0,-12.73,-18.59,-18.65,0,*6C
1488013328.07,61408,7.5,72692.8,-12.73,-18.31,-18.35,0,*68
1488013329.28,61409,7.5,72692.5,-12.77,-18.21,-18.21,0,*69
1488013330.54,61410,7.5,72686.5,-12.77,-17.63,-17.59,0,*68
1488013331.84,61411,7.5,72678.0,-12.79,-17.17,-17.17,0,*6E
1488013333.1,61412,7.5,72678.0,-12.79,-17.73,-17.63,0,*6C
1488013334.37,61413,7.5,72676.8,-12.81,-17.59,-17.63,0,*62
1488013335.58,61414,7.5,72678.5,-12.81,-16.89,-16.83,0,*66
1488013336.85,61415,7.5,72680.8,-12.81,-17.17,-17.17,0,*6D
1488013338.09,61416,7.44,72672.0,-12.85,-17.49,-17.55,0,*67
1488013339.34,61417,7.5,72678.5,-12.87,-18.17,-18.11,0,*6F
1488013340.58,61418,7.5,72672.8,-12.87,-17.49,-17.49,0,*66
1488013341.86,61419,7.5,72668.5,-12.87,-18.01,-18.11,0,*66
1488013343.13,61420,7.5,72668.0,-12.87,-17.41,-17.49,0,*65
1488013344.39,61421,7.5,72664.5,-12.89,-18.01,-18.01,0,*62
1488013345.68,61422,7.5,72666.5,-12.91,-17.59,-17.55,0,*64
1488013346.92,61423,7.5,72666.5,-12.91,-17.31,-17.31,0,*69
1488013348.18,61424,7.5,72662.3,-12.91,-17.31,-17.41,0,*69
1488013349.48,61425,7.5,72658.3,-12.91,-17.11,-17.03,0,*6C
1488013350.72,61426,7.5,72660.5,-12.91,-16.89,-16.97,0,*63
1488013351.99,61427,7.5,72658.3,-12.91,-16.65,-16.55,0,*6E
1488013353.24,61428,7.44,72654.5,-12.91,-16.41,-16.41,0,*62
1488013354.51,61429,7.5,72658.0,-12.91,-16.09,-15.99,0,*69
1488013355.78,61430,7.5,72656.0,-12.89,-15.57,-15.57,0,*62
1488013357.0,61431,7.5,72660.3,-12.89,-15.53,-15.49,0,*68
1488013358.24,61432,7.5,72658.5,-12.89,-15.49,-15.43,0,*6A
1488013359.49,61433,7.5,72652.8,-12.87,-15.49,-15.29,0,*69
1488013360.74,61434,7.5,72654.3,-12.85,-15.53,-15.43,0,*6B
1488013361.96,61435,7.5,72652.3,-12.85,-15.75,-15.71,0,*6F
1488013363.23,61436,7.5,72648.3,-12.85,-16.13,-15.89,0,*68
1488013364.5,61437,7.5,72646.5,-12.81,-16.13,-16.23,0,*6E
1488013365.75,61438,7.5,72642.8,-12.81,-16.55,-16.69,0,*6D
1488013366.97,61439,7.5,72640.0,-12.81,-16.41,-16.37,0,*62
1488013368.21,61440,7.5,72636.8,-12.79,-16.37,-16.37,0,*6A
1488013369.45,61441,7.5,72632.8,-12.81,-15.95,-15.85,0,*6D
1488013370.69,61442,7.5,72628.0,-12.79,-15.99,-15.95,0,*64
1488013371.9,61443,7.5,72628.0,-12.81,-15.99,-15.95,0,*62
1488013373.17,61444,7.5,72634.0,-12.79,-15.95,-15.85,0,*6F
1488013374.42,61445,7.5,72628.5,-12.79,-15.53,-15.49,0,*64
1488013375.64,61446,7.5,72630.8,-12.77,-15.53,-15.53,0,*62
1488013376.92,61447,7.5,72632.8,-12.75,-15.43,-15.29,0,*6D
1488013378.13,61448,7.5,72634.0,-12.77,-15.67,-15.67,0,*6C
1488013379.35,61449,7.5,72636.0,-12.77,-15.49,-15.49,0,*6D
1488013380.59,61450,7.5,72636.8,-12.75,-15.75,-15.63,0,*60
1488013381.81,61451,7.5,72646.3,-12.69,-15.75,-15.63,0,*6C
1488013383.02,61452,7.5,72648.3,-12.73,-15.95,-15.75,0,*6D
1488013384.24,61453,7.5,72648.0,-12.73,-15.53,-15.53,0,*62
1488013385.46,61454,7.5,72654.5,-12.69,-15.49,-15.49,0,*6E
1488013386.68,61455,7.5,72658.0,-12.69,-15.71,-15.63,0,*6C
1488013387.92,61456,7.5,72662.8,-12.73,-15.81,-15.75,0,*6C
1488013389.16,61457,7.5,72668.5,-12.73,-15.57,-15.49,0,*69
1488013390.43,61458,7.5,72670.3,-12.69,-15.89,-15.89,0,*62
1488013391.7,61459,7.5,72670.8,-12.69,-16.27,-16.17,0,*60
1488013392.97,61460,7.5,72674.0,-12.73,-16.17,-16.09,0,*6D
1488013394.19,61461,7.5,72676.0,-12.69,-15.75,-15.71,0,*6C
1488013395.46,61462,7.5,72682.0,-12.69,-15.85,-15.85,0,*6B
1488013396.7,61463,7.5,72680.3,-12.69,-16.45,-16.51,0,*6F
1488013397.95,61464,7.5,72686.5,-12.69,-16.31,-16.31,0,*6D
1488013399.22,61465,7.5,72684.5,-12.69,-16.31,-16.31,0,*6C
1488013400.48,61466,7.5,72688.0,-12.73,-16.23,-16.09,0,*6C
1488013401.72,61467,7.5,72686.5,-12.73,-16.09,-16.03,0,*6F
1488013402.99,61468,7.5,72688.5,-12.73,-15.89,-15.89,0,*6A
1488013404.26,61469,7.5,72690.8,-12.73,-16.17,-16.17,0,*6B
1488013405.49,61470,7.5,72690.3,-12.73,-16.37,-16.51,0,*63
1488013406.76,61471,7.5,72692.3,-12.69,-15.85,-15.85,0,*69
1488013408.02,61472,7.5,72690.0,-12.69,-16.51,-16.51,0,*6A
1488013409.29,61473,7.5,72686.5,-12.73,-17.07,-17.07,0,*60
1488013410.56,61474,7.5,72688.0,-12.73,-16.69,-16.65,0,*6B
1488013411.77,61475,7.5,72692.0,-12.73,-16.55,-16.55,0,*66
1488013413.04,61476,7.5,72692.3,-12.75,-17.07,-16.97,0,*6B
1488013414.26,61477,7.5,72698.8,-12.77,-16.83,-16.75,0,*69
1488013415.52,61478,7.5,72698.3,-12.77,-16.69,-16.69,0,*6F
1488013416.76,61479,7.5,72704.8,-12.77,-16.51,-16.41,0,*6F
1488013418.03,61480,7.5,72710.8,-12.77,-16.13,-16.13,0,*68
1488013419.24,61481,7.5,72712.0,-12.77,-15.99,-15.95,0,*65
1488013420.54,61482,7.5,72712.8,-12.75,-16.17,-16.17,0,*68
1488013421.81,61483,7.5,72716.5,-12.77,-15.85,-15.81,0,*6F
1488013423.02,61484,7.5,72718.3,-12.77,-15.99,-15.95,0,*60
1488013424.28,61485,7.5,72718.3,-12.75,-15.81,-15.75,0,*64
1488013425.49,61486,7.5,72718.5,-12.73,-15.75,-15.67,0,*69
1488013426.74,61487,7.5,72718.5,-12.75,-15.53,-15.53,0,*6D
1488013428.01,61488,7.5,72718.3,-12.75,-15.89,-15.95,0,*6F
1488013429.22,61489,7.5,72716.3,-12.69,-15.63,-15.67,0,*6A
1488013430.43,61490,7.5,72712.3,-12.73,-15.67,-15.63,0,*69
1488013431.65,61491,7.5,72716.3,-12.73,-15.95,-15.95,0,*6C
1488013432.88,61492,7.5,72708.8,-12.73,-15.99,-15.85,0,*62
1488013434.14,61493,7.5,72716.5,-12.73,-16.31,-16.31,0,*6E
1488013435.35,61494,7.5,72718.0,-12.73,-16.03,-15.95,0,*65
1488013436.62,61495,7.5,72722.5,-12.69,-15.89,-15.89,0,*63
1488013437.89,61496,7.5,72718.8,-12.69,-16.27,-16.17,0,*63
1488013439.12,61497,7.5,72720.0,-12.69,-16.45,-16.51,0,*64
1488013440.37,61498,7.5,72708.5,-12.73,-17.35,-17.41,0,*66
1488013441.61,61499,7.5,72714.8,-12.73,-17.25,-17.35,0,*65
1488013442.85,61500,7.5,72708.0,-12.73,-17.35,-17.41,0,*66
1488013444.12,61501,7.5,72708.5,-12.77,-17.25,-17.25,0,*60
1488013445.38,61502,7.5,72710.8,-12.77,-17.17,-17.17,0,*63
1488013446.65,61503,7.5,72708.8,-12.77,-17.25,-17.25,0,*62
1488013447.88,61504,7.5,72710.0,-12.77,-17.59,-17.49,0,*64
1488013449.13,61505,7.5,72706.3,-12.79,-18.07,-18.07,0,*6A
1488013450.37,61506,7.5,72704.5,-12.81,-17.87,-17.93,0,*6B
1488013451.63,61507,7.5,72712.3,-12.85,-17.93,-17.93,0,*6B
1488013452.87,61508,7.5,72710.3,-12.85,-17.69,-17.63,0,*6E
1488013454.16,61509,7.5,72712.3,-12.87,-17.55,-17.59,0,*6B
1488013455.4,61510,7.5,72702.8,-12.89,-18.31,-18.41,0,*66
1488013456.67,61511,7.5,72676.8,-12.91,-18.35,-18.45,0,*6E
1488013457.94,61512,7.5,72674.0,-12.91,-17.73,-17.79,0,*60
1488013459.2,61513,7.5,72660.0,-12.91,-17.31,-17.41,0,*6C
1488013460.48,61514,7.5,72658.0,-12.95,-17.35,-17.45,0,*6F
1488013461.79,61515,7.5,72638.3,-12.95,-17.21,-17.07,0,*6D
1488013463.07,61516,7.5,72638.8,-12.95,-16.41,-16.31,0,*6D
1488013464.36,61517,7.5,72632.5,-12.95,-16.27,-16.27,0,*6B
1488013465.61,61518,7.5,72634.0,-12.95,-16.93,-16.89,0,*6F
1488013466.86,61519,7.5,72638.0,-12.95,-16.89,-16.79,0,*6A
1488013468.14,61520,7.5,72644.0,-12.95,-16.41,-16.27,0,*6F
1488013469.38,61521,7.5,72654.0,-12.91,-16.89,-16.97,0,*65
1488013470.62,61522,7.5,72650.5,-12.91,-16.83,-16.83,0,*69
1488013471.92,61523,7.5,72646.3,-12.91,-16.65,-16.51,0,*6F
1488013473.17,61524,7.5,72650.3,-12.95,-16.75,-16.75,0,*6B
1488013474.43,61525,7.5,72654.8,-12.95,-16.75,-16.59,0,*64
1488013475.68,61526,7.5,72656.8,-12.95,-16.45,-16.41,0,*6D
1488013476.95,61527,7.5,72648.3,-12.91,-16.69,-16.75,0,*61
1488013478.19,61528,7.5,72646.0,-12.91,-17.31,-17.31,0,*63
1488013479.48,61529,7.5,72644.3,-12.91,-16.27,-16.27,0,*62
1488013480.73,61530,7.5,72640.8,-12.95,-16.45,-16.41,0,*6A
1488013481.98,61531,7.5,72636.8,-12.91,-16.41,-16.37,0,*6A
1488013483.22,61532,7.5,72636.0,-12.91,-15.99,-15.95,0,*64
1488013484.48,61533,7.5,72624.0,-12.91,-16.37,-16.27,0,*68
1488013485.76,61534,7.5,72622.0,-12.91,-16.69,-16.75,0,*63
1488013487.01,61535,7.5,72618.8,-12.91,-16.41,-16.41,0,*6F
1488013488.25,61536,7.5,72612.0,-12.91,-16.41,-16.41,0,*6C
1488013489.55,61537,7.5,72618.5,-12.91,-16.13,-16.23,0,*6E
1488013490.82,61538,7.5,72606.5,-12.91,-16.37,-16.27,0,*63
1488013492.08,61539,7.5,72618.3,-12.91,-16.27,-16.37,0,*62
1488013493.33,61540,7.5,72624.0,-12.91,-16.41,-16.41,0,*6D
1488013494.63,61541,7.5,72628.8,-12.91,-16.13,-16.23,0,*6F
1488013495.87,61542,7.5,72642.0,-12.91,-16.37,-16.37,0,*6F
1488013497.14,61543,7.5,72646.0,-12.89,-16.17,-16.09,0,*68
1488013498.38,61544,7.5,72652.5,-12.89,-16.97,-17.03,0,*6C
1488013499.66,61545,7.5,72654.0,-12.91,-16.69,-16.55,0,*67
1488013500.96,61546,7.5,72656.5,-12.91,-16.13,-16.09,0,*60
1488013502.23,61547,7.5,72658.5,-12.89,-16.23,-16.17,0,*64
1488013503.53,61548,7.5,72656.0,-12.91,-15.85,-15.81,0,*61
1488013504.77,61549,7.5,72658.0,-12.91,-16.37,-16.37,0,*64
1488013506.0,61550,7.5,72658.5,-12.89,-16.51,-16.37,0,*65
1488013507.27,61551,7.5,72654.3,-12.91,-16.55,-16.51,0,*69
1488013508.54,61552,7.5,72658.0,-12.91,-16.51,-16.37,0,*6E
1488013509.78,61553,7.44,72654.8,-12.89,-15.63,-15.57,0,*61
1488013510.99,61554,7.5,72658.5,-12.89,-15.67,-15.63,0,*65
1488013512.24,61555,7.5,72662.8,-12.91,-15.53,-15.53,0,*69
1488013513.48,61556,7.5,72666.8,-12.89,-15.57,-15.63,0,*64
1488013514.76,61557,7.5,72662.5,-12.87,-15.57,-15.49,0,*63
1488013516.03,61558,7.5,72660.8,-12.87,-15.49,-15.43,0,*69
1488013517.25,61559,7.5,72662.8,-12.85,-15.53,-15.53,0,*60
1488013518.49,61560,7.5,72662.5,-12.85,-15.85,-16.03,0,*67
1488013519.7,61561,7.5,72660.3,-12.85,-16.45,-16.45,0,*6B
1488013520.92,61562,7.5,72660.0,-12.85,-16.55,-16.41,0,*6D
1488013522.19,61563,7.5,72664.0,-12.85,-16.17,-16.13,0,*6D
1488013523.44,61564,7.5,72664.5,-12.81,-15.67,-15.57,0,*69
1488013524.71,61565,7.5,72666.0,-12.85,-15.39,-15.39,0,*6F
1488013525.98,61566,7.5,72672.0,-12.81,-15.81,-15.81,0,*68
1488013527.19,61567,7.5,72674.0,-12.81,-15.71,-15.67,0,*6E
1488013528.46,61568,7.5,72668.8,-12.81,-15.85,-15.81,0,*62
1488013529.7,61569,7.5,72666.0,-12.81,-15.57,-15.53,0,*63
1488013530.95,61570,7.5,72670.3,-12.81,-15.57,-15.53,0,*6B
1488013532.22,61571,7.5,72664.8,-12.81,-15.85,-15.85,0,*6E
1488013533.46,61572,7.5,72666.5,-12.79,-16.59,-16.59,0,*6A
1488013534.71,61573,7.5,72672.8,-12.79,-16.37,-16.41,0,*6A
1488013535.98,61574,7.5,72672.5,-12.81,-16.13,-16.13,0,*6B
1488013537.25,61575,7.5,72672.0,-12.81,-16.09,-16.13,0,*61
1488013538.52,61576,7.5,72674.5,-12.81,-15.81,-15.81,0,*69
1488013539.79,61577,7.5,72676.3,-12.81,-15.39,-15.35,0,*64
1488013541.08,61578,7.5,72676.8,-12.79,-15.81,-15.81,0,*60
1488013542.38,61579,7.5,72672.0,-12.79,-15.39,-15.39,0,*61
1488013543.67,61580,7.5,72678.3,-12.79,-15.35,-15.21,0,*62
1488013544.97,61581,7.5,72678.3,-12.79,-15.35,-15.39,0,*6A
1488013546.24,61582,7.5,72682.3,-12.79,-15.49,-15.39,0,*62
1488013547.5,61583,7.5,72678.5,-12.77,-15.21,-15.21,0,*6A
1488013548.74,61584,7.5,72680.5,-12.75,-15.07,-15.07,0,*6F
1488013550.0,61585,7.5,72684.3,-12.73,-15.43,-15.43,0,*68
1488013551.23,61586,7.5,72686.3,-12.69,-15.75,-15.75,0,*60
1488013552.44,61587,7.5,72690.0,-12.69,-15.75,-15.67,0,*62
1488013553.71,61588,7.5,72684.0,-12.73,-15.43,-15.43,0,*65
1488013554.97,61589,7.5,72686.5,-12.73,-15.35,-15.35,0,*64
1488013556.22,61590,7.5,72690.3,-12.69,-15.57,-15.49,0,*68
1488013557.47,61591,7.5,72690.0,-12.69,-15.39,-15.29,0,*67
1488013558.74,61592,7.5,72688.5,-12.69,-15.43,-15.39,0,*68
1488013559.99,61593,7.5,72688.8,-12.69,-15.39,-15.29,0,*65
1488013561.21,61594,7.5,72688.3,-12.69,-15.29,-15.25,0,*6F
1488013562.47,61595,7.5,72690.5,-12.69,-14.97,-14.75,0,*6E
1488013563.72,61596,7.5,72690.0,-12.67,-14.83,-14.69,0,*6B
1488013564.98,61597,7.5,72688.5,-12.67,-14.93,-14.79,0,*6A
1488013566.22,61598,7.5,72684.8,-12.67,-15.11,-15.21,0,*62
1488013567.47,61599,7.5,72684.8,-12.67,-15.53,-15.39,0,*6C
1488013568.73,61600,7.5,72680.8,-12.67,-15.53,-15.39,0,*6F
1488013569.95,61601,7.5,72680.0,-12.67,-15.25,-15.07,0,*62
1488013571.2,61602,7.5,72680.5,-12.65,-15.25,-15.25,0,*63
1488013572.44,61603,7.5,72684.5,-12.63,-15.21,-15.15,0,*63
1488013573.73,61604,7.5,72688.3,-12.65,-15.35,-15.21,0,*60
1488013575.0,61605,7.5,72688.8,-12.65,-15.81,-15.75,0,*6F
1488013576.26,61606,7.5,72696.8,-12.63,-15.39,-15.49,0,*66
1488013577.49,61607,7.5,72696.5,-12.63,-15.63,-15.49,0,*68
1488013578.72,61608,7.5,72700.0,-12.59,-15.29,-15.29,0,*66
1488013579.95,61609,7.5,72702.0,-12.59,-15.29,-15.15,0,*68
1488013581.2,61610,7.5,72706.8,-12.63,-14.79,-14.65,0,*6B
1488013582.46,61611,7.5,72708.3,-12.59,-14.93,-14.93,0,*6E
1488013583.71,61612,7.5,72710.8,-12.57,-15.11,-14.89,0,*63
1488013585.0,61613,7.5,72714.3,-12.57,-14.55,-14.47,0,*61
1488013586.31,61614,7.5,72718.3,-12.57,-14.47,-14.47,0,*65
1488013587.58,61615,7.5,72716.8,-12.53,-14.61,-14.55,0,*67
1488013588.86,61616,7.5,72718.3,-12.55,-14.55,-14.47,0,*66
1488013590.08,61617,7.5,72716.0,-12.51,-14.37,-14.33,0,*64
1488013591.32,61618,7.5,72716.8,-12.49,-14.37,-14.33,0,*62
1488013592.62,61619,7.5,72714.8,-12.49,-14.51,-14.51,0,*67
1488013593.87,61620,7.5,72714.5,-12.45,-15.15,-15.07,0,*62
1488013595.11,61621,7.5,72706.5,-12.45,-15.53,-15.63,0,*63
1488013596.39,61622,7.5,72706.8,-12.45,-15.75,-15.81,0,*68
1488013597.66,61623,7.5,72700.0,-12.45,-15.35,-15.25,0,*63
1488013598.95,61624,7.5,72696.0,-12.45,-15.35,-15.35,0,*65
1488013600.2,61625,7.5,72698.3,-12.45,-15.15,-15.15,0,*64
1488013601.44,61626,7.5,72688.3,-12.45,-15.15,-15.11,0,*63
1488013602.72,61627,7.5,72684.8,-12.45,-15.43,-15.29,0,*6A
1488013604.01,61628,7.5,72686.0,-12.45,-15.35,-15.35,0,*69
1488013605.25,61629,7.5,72676.3,-12.43,-15.71,-15.57,0,*6A
1488013606.52,61630,7.5,72672.8,-12.43,-15.43,-15.21,0,*62
1488013607.76,61631,7.5,72672.3,-12.43,-15.29,-15.21,0,*6F
1488013609.01,61632,7.5,72670.0,-12.43,-15.49,-15.43,0,*6E
1488013610.22,61633,7.5,72660.5,-12.43,-15.71,-15.71,0,*65
1488013611.49,61634,7.5,72662.5,-12.43,-15.57,-15.43,0,*67
1488013612.74,61635,7.5,72670.8,-12.43,-15.43,-15.29,0,*6F
1488013613.97,61636,7.5,72664.3,-12.43,-15.21,-15.11,0,*63
1488013615.23,61637,7.5,72664.8,-12.41,-15.11,-15.01,0,*62
1488013616.49,61638,7.5,72664.3,-12.41,-15.11,-14.97,0,*63
1488013617.72,61639,7.5,72676.3,-12.41,-14.89,-14.69,0,*63
1488013618.95,61640,7.5,72676.3,-12.39,-14.69,-14.55,0,*63
1488013620.21,61641,7.5,72680.0,-12.35,-15.21,-15.07,0,*65
1488013621.42,61642,7.5,72680.0,-12.39,-15.11,-15.11,0,*6E
1488013622.71,61643,7.5,72680.3,-12.35,-15.21,-15.01,0,*61
1488013623.97,61644,7.5,72688.5,-12.35,-15.01,-14.89,0,*65
1488013625.22,61645,7.5,72688.8,-12.33,-15.01,-15.01,0,*63
1488013626.46,61646,7.5,72692.3,-12.33,-15.07,-15.01,0,*66
1488013627.72,61647,7.5,72692.5,-12.33,-15.21,-15.21,0,*61
1488013628.95,61648,7.5,72690.8,-12.33,-15.21,-15.07,0,*6A
1488013630.19,61649,7.5,72694.3,-12.31,-15.07,-14.89,0,*6A
1488013631.46,61650,7.5,72696.3,-12.31,-15.21,-15.07,0,*61
1488013632.72,61651,7.5,72698.5,-12.31,-15.11,-15.01,0,*65
1488013633.98,61652,7.5,72696.8,-12.31,-15.21,-15.11,0,*64
1488013635.24,61653,7.5,72700.8,-12.27,-14.97,-14.89,0,*6E
1488013636.5,61654,7.5,72700.0,-12.29,-14.97,-14.75,0,*64
1488013637.76,61655,7.5,72700.3,-12.29,-14.97,-14.83,0,*6C
1488013639.02,61656,7.5,72702.5,-12.27,-14.97,-14.89,0,*6B
1488013640.31,61657,7.5,72700.5,-12.23,-14.93,-14.83,0,*60
1488013641.59,61658,7.5,72706.3,-12.23,-14.93,-14.83,0,*6F
1488013642.88,61659,7.5,72702.3,-12.23,-14.93,-14.79,0,*6B
1488013644.12,61660,7.5,72704.8,-12.23,-15.15,-15.11,0,*61
1488013645.38,61661,7.5,72706.0,-12.23,-14.79,-14.65,0,*69
1488013646.67,61662,7.5,72706.5,-12.23,-14.93,-14.97,0,*63
1488013647.94,61663,7.5,72706.0,-12.23,-15.53,-15.39,0,*6A
1488013649.18,61664,7.5,72710.5,-12.23,-15.29,-15.15,0,*6E
1488013650.45,61665,7.5,72710.3,-12.21,-15.35,-15.39,0,*6E
1488013651.69,61666,7.5,72704.8,-12.23,-15.67,-15.53,0,*64
1488013652.93,61667,7.5,72706.0,-12.23,-15.95,-15.99,0,*6E
1488013654.16,61668,7.5,72706.0,-12.23,-15.99,-15.99,0,*6D
1488013655.4,61669,7.5,72708.0,-12.23,-15.95,-16.03,0,*60
1488013656.67,61670,7.5,72706.3,-12.23,-15.53,-15.43,0,*65
1488013657.94,61671,7.5,72706.8,-12.23,-15.53,-15.43,0,*64
1488013659.2,61672,7.5,72710.0,-12.23,-15.25,-15.01,0,*60
1488013660.47,61673,7.5,72702.5,-12.23,-15.43,-15.29,0,*6B
1488013661.74,61674,7.5,72704.3,-12.23,-15.53,-15.43,0,*61
1488013663.01,61675,7.5,72708.0,-12.23,-15.39,-15.29,0,*60
1488013664.28,61676,7.5,72708.3,-12.23,-15.67,-15.57,0,*61
1488013665.57,61677,7.5,72704.3,-12.23,-15.43,-15.39,0,*6E
1488013666.84,61678,7.5,72704.8,-12.23,-15.53,-15.39,0,*60
1488013668.13,61679,7.5,72706.5,-12.23,-15.57,-15.43,0,*68
1488013669.37,61680,7.5,72710.8,-12.23,-15.25,-15.15,0,*68
1488013670.63,61681,7.5,72708.5,-12.23,-15.11,-14.97,0,*65
1488013671.87,61682,7.5,72708.0,-12.23,-15.25,-15.15,0,*6A
1488013673.11,61683,7.5,72712.5,-12.23,-15.25,-15.15,0,*6B
1488013674.36,61684,7.5,72706.8,-12.21,-15.35,-15.25,0,*6C
1488013675.61,61685,7.5,72708.0,-12.21,-15.35,-15.25,0,*6D
1488013676.85,61686,7.5,72708.3,-12.21,-15.81,-15.75,0,*64
1488013678.12,61687,7.5,72700.5,-12.21,-16.13,-16.27,0,*69
1488013679.36,61688,7.5,72702.0,-12.21,-16.55,-16.65,0,*62
1488013680.63,61689,7.5,72688.5,-12.21,-16.13,-16.23,0,*63
1488013681.92,61690,7.5,72696.8,-12.23,-15.85,-15.85,0,*6A
1488013683.15,61691,7.5,72700.0,-12.23,-16.89,-16.93,0,*60
1488013684.44,61692,7.5,72712.8,-12.23,-17.93,-17.97,0,*6C
1488013685.71,61693,7.5,72712.5,-12.29,-18.01,-17.97,0,*63
1488013686.93,61694,7.5,72714.5,-12.29,-17.49,-17.49,0,*64
1488013688.23,61695,7.5,72710.3,-12.31,-16.69,-16.69,0,*6C
1488013689.44,61696,7.5,72704.0,-12.33,-16.83,-16.83,0,*6D
1488013690.66,61697,7.5,72700.5,-12.33,-16.55,-16.41,0,*69
1488013691.93,61698,7.5,72694.0,-12.33,-16.23,-16.23,0,*63
1488013693.19,61699,7.5,72690.3,-12.33,-16.27,-16.27,0,*62
1488013694.45,61700,7.5,72686.5,-12.33,-16.23,-16.23,0,*63
1488013695.76,61701,7.5,72670.5,-12.31,-16.09,-16.09,0,*60
1488013697.0,61702,7.5,72672.3,-12.31,-16.37,-16.37,0,*63
1488013698.26,61703,7.5,72666.3,-12.33,-16.23,-16.23,0,*60
1488013699.48,61704,7.5,72666.3,-12.33,-15.75,-15.63,0,*60
1488013700.7,61705,7.5,72664.3,-12.33,-15.75,-15.63,0,*61
1488013701.94,61706,7.5,72658.3,-12.33,-15.53,-15.39,0,*69
1488013703.18,61707,7.5,72658.5,-12.33,-15.35,-15.11,0,*62
1488013704.4,61708,7.5,72656.5,-12.33,-15.63,-15.63,0,*6B
1488013705.65,61709,7.5,72660.5,-12.31,-15.75,-15.75,0,*68
1488013706.89,61710,7.5,72660.0,-12.33,-15.95,-15.81,0,*67
1488013708.14,61711,7.5,72662.3,-12.31,-15.75,-15.63,0,*66